• En España
  • Lista de países
  • Para 7 días
  • Temperatura del agua
  • Mapa Satelital
  • El tiempo en el mapa
  • Informadores
  • user-avatar
    Iniciar sesión

    Tiempo cada hora Zashizheme

    Hoy, 16 Octubre, Martes

    Tiempo Temperatura Precipitaciones Viento Presión Humedad
    00:00 +7°C° 0 mm 3 mps 748 mmHg 97%
    01:00 +5°C° 0 mm 3 mps 748 mmHg 97%
    02:00 +5°C° 0 mm 3 mps 748 mmHg 96%
    03:00 +5°C° 0 mm 3 mps 748 mmHg 96%
    04:00 +5°C° 0 mm 3 mps 748 mmHg 96%
    05:00 +4°C° 0 mm 3 mps 748 mmHg 95%
    06:00 +4°C° 0 mm 3 mps 748 mmHg 95%
    07:00 +5°C° 0 mm 3 mps 748 mmHg 93%
    08:00 +6°C° 0 mm 4 mps 748 mmHg 90%
    09:00 +7°C° 0 mm 4 mps 748 mmHg 88%
    10:00 +8°C° 0 mm 4 mps 748 mmHg 84%
    11:00 +11°C° 0 mm 4 mps 748 mmHg 80%
    12:00 +12°C° 0 mm 4 mps 748 mmHg 75%
    13:00 +12°C° 0 mm 4 mps 748 mmHg 76%
    14:00 +12°C° 0 mm 4 mps 748 mmHg 76%
    15:00 +12°C° 0 mm 4 mps 748 mmHg 76%
    16:00 +11°C° 0 mm 3 mps 748 mmHg 81%
    17:00 +10°C° 0 mm 3 mps 748 mmHg 86%
    18:00 +9°C° 0 mm 3 mps 748 mmHg 91%
    19:00 +8°C° 0 mm 3 mps 747 mmHg 91%
    20:00 +7°C° 0 mm 4 mps 747 mmHg 91%
    21:00 +7°C° 0 mm 4 mps 746 mmHg 91%
    22:00 +7°C° 0 mm 4 mps 746 mmHg 90%
    23:00 +7°C° 0 mm 4 mps 745 mmHg 89%

    Mañana, 17 Octubre, Miércoles

    Tiempo Temperatura Precipitaciones Viento Presión Humedad
    00:00 +7°C° 0 mm 5 mps 745 mmHg 88%
    01:00 +7°C° 0 mm 5 mps 745 mmHg 88%
    02:00 +6°C° 0 mm 5 mps 744 mmHg 88%
    03:00 +6°C° 0 mm 5 mps 744 mmHg 88%
    04:00 +6°C° 0 mm 5 mps 744 mmHg 89%
    05:00 +5°C° 0 mm 5 mps 744 mmHg 90%
    06:00 +5°C° 0 mm 5 mps 744 mmHg 92%
    07:00 +6°C° 0 mm 5 mps 744 mmHg 90%
    08:00 +7°C° 0 mm 5 mps 744 mmHg 88%
    09:00 +7°C° 0 mm 6 mps 745 mmHg 86%
    10:00 +8°C° 0 mm 6 mps 745 mmHg 80%
    11:00 +8°C° 0 mm 6 mps 746 mmHg 73%
    12:00 +9°C° 0 mm 7 mps 747 mmHg 67%
    13:00 +8°C° 0 mm 6 mps 747 mmHg 66%
    14:00 +8°C° 0 mm 6 mps 748 mmHg 64%
    15:00 +7°C° 0 mm 5 mps 749 mmHg 63%
    16:00 +6°C° 0 mm 5 mps 749 mmHg 68%
    17:00 +5°C° 0 mm 4 mps 750 mmHg 73%
    18:00 +4°C° 0 mm 3 mps 751 mmHg 78%
    19:00 +4°C° 0 mm 3 mps 751 mmHg 80%
    20:00 +3°C° 0 mm 3 mps 751 mmHg 81%
    21:00 +3°C° 0 mm 3 mps 752 mmHg 83%
    22:00 +2°C° 0 mm 3 mps 752 mmHg 85%
    23:00 +2°C° 0 mm 3 mps 752 mmHg 87%

    Pasado mañana, 18 Octubre, Jueves

    Tiempo Temperatura Precipitaciones Viento Presión Humedad
    00:00 +2°C° 0 mm 3 mps 752 mmHg 89%
    01:00 +1°C° 0 mm 3 mps 752 mmHg 90%
    02:00 +1°C° 0 mm 3 mps 752 mmHg 91%
    03:00 +1°C° 0 mm 3 mps 752 mmHg 92%
    04:00 +1°C° 0 mm 3 mps 752 mmHg 92%
    05:00 +1°C° 0 mm 3 mps 752 mmHg 92%
    06:00 +1°C° 0 mm 3 mps 752 mmHg 92%
    07:00 +2°C° 0 mm 3 mps 752 mmHg 87%
    08:00 +3°C° 0 mm 3 mps 752 mmHg 82%
    09:00 +4°C° 0 mm 3 mps 752 mmHg 78%
    10:00 +5°C° 0 mm 3 mps 752 mmHg 72%
    11:00 +7°C° 0 mm 3 mps 751 mmHg 67%
    12:00 +8°C° 0 mm 3 mps 751 mmHg 62%
    13:00 +8°C° 0 mm 3 mps 751 mmHg 63%
    14:00 +8°C° 0 mm 3 mps 750 mmHg 63%
    15:00 +8°C° 0 mm 3 mps 750 mmHg 64%
    16:00 +8°C° 0 mm 3 mps 750 mmHg 68%
    17:00 +7°C° 0 mm 3 mps 749 mmHg 72%
    18:00 +5°C° 0 mm 3 mps 749 mmHg 77%
    19:00 +5°C° 0 mm 4 mps 749 mmHg 81%
    20:00 +5°C° 0 mm 4 mps 748 mmHg 85%
    21:00 +5°C° 0 mm 4 mps 748 mmHg 89%
    22:00 +5°C° 0 mm 4 mps 748 mmHg 91%
    23:00 +5°C° 0 mm 4 mps 747 mmHg 94%

    19 Octubre, Viernes

    Tiempo Temperatura Precipitaciones Viento Presión Humedad
    00:00 +5°C° 0 mm 3 mps 747 mmHg 96%
    01:00 +5°C° 0 mm 3 mps 747 mmHg 96%
    02:00 +5°C° 0 mm 3 mps 747 mmHg 96%
    03:00 +5°C° 0 mm 3 mps 747 mmHg 97%
    04:00 +5°C° 0 mm 3 mps 746 mmHg 97%
    05:00 +5°C° 0 mm 4 mps 746 mmHg 96%
    06:00 +5°C° 0 mm 4 mps 745 mmHg 96%
    07:00 +6°C° 0 mm 4 mps 745 mmHg 95%
    08:00 +6°C° 0 mm 4 mps 745 mmHg 93%
    09:00 +6°C° 0 mm 4 mps 745 mmHg 91%
    10:00 +7°C° 0 mm 5 mps 744 mmHg 86%
    11:00 +8°C° 0 mm 5 mps 744 mmHg 82%
    12:00 +10°C° 0 mm 5 mps 744 mmHg 77%
    13:00 +10°C° 0 mm 5 mps 744 mmHg 76%
    14:00 +12°C° 0 mm 5 mps 743 mmHg 76%
    15:00 +12°C° 0 mm 5 mps 743 mmHg 75%
    16:00 +10°C° 0 mm 5 mps 743 mmHg 80%
    17:00 +11°C° 0 mm 4 mps 743 mmHg 85%
    18:00 +10°C° 0 mm 4 mps 743 mmHg 89%
    19:00 +8°C° 0 mm 4 mps 743 mmHg 90%
    20:00 +8°C° 0 mm 4 mps 743 mmHg 92%
    21:00 +9°C° 0 mm 3 mps 743 mmHg 93%
    22:00 +9°C° 0.1 mm 3 mps 743 mmHg 94%
    23:00 +9°C° 0.1 mm 3 mps 743 mmHg 95%

    20 Octubre, Sábado

    Tiempo Temperatura Precipitaciones Viento Presión Humedad
    00:00 +8°C° 0.1 mm 3 mps 743 mmHg 96%
    01:00 +8°C° 0.5 mm 2 mps 743 mmHg 96%
    02:00 +8°C° 0.5 mm 2 mps 743 mmHg 95%
    03:00 +8°C° 0.5 mm 2 mps 743 mmHg 95%
    04:00 +8°C° 0.1 mm 2 mps 743 mmHg 94%
    05:00 +7°C° 0.1 mm 3 mps 743 mmHg 93%
    06:00 +7°C° 0.1 mm 3 mps 743 mmHg 92%
    07:00 +7°C° 0 mm 3 mps 743 mmHg 86%
    08:00 +7°C° 0 mm 4 mps 743 mmHg 80%
    09:00 +7°C° 0 mm 4 mps 744 mmHg 75%
    10:00 +8°C° 0 mm 5 mps 744 mmHg 71%
    11:00 +8°C° 0 mm 5 mps 744 mmHg 67%
    12:00 +9°C° 0 mm 5 mps 744 mmHg 63%
    13:00 +8°C° 0 mm 5 mps 744 mmHg 64%
    14:00 +8°C° 0 mm 5 mps 744 mmHg 66%
    15:00 +8°C° 0 mm 4 mps 745 mmHg 67%
    16:00 +7°C° 0 mm 4 mps 745 mmHg 71%
    17:00 +6°C° 0 mm 4 mps 745 mmHg 74%
    18:00 +5°C° 0 mm 4 mps 745 mmHg 78%
    19:00 +5°C° 0 mm 4 mps 746 mmHg 77%
    20:00 +5°C° 0 mm 3 mps 746 mmHg 76%
    21:00 +4°C° 0 mm 3 mps 746 mmHg 76%
    22:00 +4°C° 0 mm 3 mps 746 mmHg 79%
    23:00 +3°C° 0 mm 3 mps 747 mmHg 82%

    21 Octubre, Domingo

    Tiempo Temperatura Precipitaciones Viento Presión Humedad
    00:00 +3°C° 0 mm 3 mps 747 mmHg 85%
    01:00 +2°C° 0 mm 3 mps 747 mmHg 88%
    02:00 +3°C° 0 mm 2 mps 747 mmHg 90%
    03:00 +2°C° 0 mm 2 mps 747 mmHg 92%
    04:00 +2°C° 0 mm 2 mps 748 mmHg 93%
    05:00 +2°C° 0 mm 2 mps 748 mmHg 93%
    06:00 +1°C° 0 mm 2 mps 748 mmHg 93%
    07:00 +3°C° 0 mm 1 mps 748 mmHg 89%
    08:00 +4°C° 0 mm 1 mps 748 mmHg 85%
    09:00 +5°C° 0 mm 1 mps 749 mmHg 81%
    10:00 +6°C° 0 mm 1 mps 749 mmHg 76%
    11:00 +7°C° 0 mm 1 mps 749 mmHg 71%
    12:00 +8°C° 0 mm 1 mps 749 mmHg 66%
    13:00 +8°C° 0 mm 1 mps 749 mmHg 67%
    14:00 +8°C° 0 mm 1 mps 749 mmHg 67%
    15:00 +8°C° 0 mm 1 mps 749 mmHg 67%
    16:00 +6°C° 0 mm 0 mps 749 mmHg 72%
    17:00 +4°C° 0 mm 0 mps 749 mmHg 76%
    18:00 +3°C° 0 mm 0 mps 749 mmHg 81%
    19:00 +3°C° 0 mm 0 mps 749 mmHg 81%
    20:00 +4°C° 0 mm 1 mps 749 mmHg 82%
    21:00 +4°C° 0 mm 1 mps 749 mmHg 83%
    22:00 +4°C° 0 mm 1 mps 749 mmHg 83%
    23:00 +4°C° 0 mm 1 mps 749 mmHg 84%
    Mostrar más